Showing default

GGSE 3, 1292

Orbit data source: Space-Track

GGSE 3, 1292 is an American payload satellite in LEO that was launched on Tue, 09 Mar 1965 UTC via a THOR SLV-2 AGENA D launch vehicle from the Air Force Western Test Range (AFWTR). Payload-class satellites include a variety of spacecraft equipped with specific instruments for various scientific and technological missions. These include communications satellites like Starlink; space stations such as the ISS; scientific satellites like the Hubble; Earth observation satellites from companies like Planet Labs, Umbra, and HawkEye 360; GPS; miniature CubeSats for education and research; and military/defense satellites.

Loading next visibility...
Identifier
1292, 1965-016C
Orbit
LEO
Country
Flag of USUS
Related business
Manufacturer
NRL
Mission
Spacecraft
Bus & Motor
NRL 24", Unknown motor
Mass
59 kg wet, 59 kg dry
Launch date (UTC)
1965-03-09 (61 years ago)
Launch vehicle
THOR SLV-2 AGENA D
Launch site
Air Force Western Test Range (AFWTR)
Object type
Payload
Rocket body
Debris
Shape & HBR
Unknown
Radar Cross Section
Medium (>0.1 m² and <1 m²)

Expand to show TLE details & history
Last TLE update: 6 hours ago

TLE from 6 hours ago
0 GGSE 3
1  1292U 65016C   25308.05670487  .00000161  00000-0  14167-3 0  9997
2  1292  70.0766  75.6167 0022261 251.0902 108.7794 14.01491475 93022
Epoch: 2025-11-04T01:21Z
TLE epoch observation values (Epoch: 2025-11-04T01:21:39.300Z)
Latitude
-0.00002°
Longitude
11.65374°
Altitude
896.199 km
Speed
7.402 km/s
True Right ascension
05h 02m 28s
True Declination
0° 00' 00"
Sunlit
Object was in full shadow at epoch
Visualization orbit readout
Latitude
Unknown
Longitude
Unknown
Altitude
Unknown
Speed
Unknown
Apparent Right ascension
Unknown
Apparent Declination
Unknown
Sunlit
N/A
Visualization observer readout
Local Sidereal Time
03:23:14
Azimuth
Unknown
Elevation
Unknown
Doppler factor
Unknown
Orbital elements
Apogee altitude
902.837 km
Perigee altitude
870.493 km
Semi-major axis
7,264.802 km
Eccentricity
0.00223
Inclination
70.0766°
RAAN
75.6167°
Arg. of periapsis
251.0902°
True anomaly
109.0207°
Mean anomaly
108.7794°
Eccentric anomaly
108.90007°
Mean motion
3.50516 °/min
Orbital period
102.71 mins
BSTAR
0.00014167
Loading maneuver chart data...
Computing Atmospheric mass density...
Loading historical data...
Loading historical data...
Loading historical data...
Loading historical data...
Loading historical data...
Loading historical data...
Loading historical data...

Documentation

Showing up to 5 results
|